Macomb, IL

4:39 AM CDT on June 25, 2017 (GMT -0500)
Macomb Municipal

Weather History for KMQB - December, 2011

Change the Weather History Date:

Monday, December 12, 2011

  Actual Average (KBRL) Record (KBRL)
Temperature  
Mean Temperature 36 °F -  
Max Temperature 45 °F 36 °F 66 °F (1991)
Min Temperature 28 °F 18 °F -10 °F (1962)
Degree Days  
Heating Degree Days 28    
Moisture  
Dew Point 28 °F    
Average Humidity 74    
Maximum Humidity 89    
Minimum Humidity 53    
Precipitation  
Precipitation 0.00 in - - ()
Sea Level Pressure  
Sea Level Pressure 30.35 in    
Wind  
Wind Speed 7 mph (SSE)    
Max Wind Speed 14 mph    
Max Gust Speed -    
Visibility 10 miles    
Events      
Averages and records for this station are not official NWS values.
T = Trace of Precipitation, MM = Missing Value Source: NWS Daily Summary

Daily Weather History Graph

Daily Weather History Graph

Search for Another Location

Airport or City:

Trip Planner

Search our weather history database for the weather conditions in past years. The results will help you decide how hot, cold, wet, or windy it might be!

Date:

Astronomy

Dec. 12, 2011 Rise Set
Actual Time 7:16 AM CST 4:35 PM CST
Civil Twilight 6:45 AM CST 5:06 PM CST
Nautical Twilight 6:11 AM CST 5:40 PM CST
Astronomical Twilight 5:38 AM CST 6:14 PM CST
Moon 6:47 PM CST (12/12) 8:48 AM CST (12/12)
Length of Visible Light 10h 20m
Length of Day
9h 19m
Waning Gibbous, 95% of the Moon is Illuminated
Dec 12
Waning Gibbous
Dec 17
Last Quarter
Dec 24
New
Jan 1
First Quarter
Jan 9
Full

Hourly Weather History & Observations

Time (CST) Temp. Windchill Dew Point Humidity Pressure Visibility Wind Dir Wind Speed Gust Speed Precip Events Conditions
12:15 AM 32.9 °F 25.3 °F 28.9 °F 85% 30.34 in 10.0 mi South 9.2 mph - N/A   Clear
12:35 AM 32.5 °F 26.2 °F 28.8 °F 86% 30.34 in 10.0 mi SSE 6.9 mph - N/A   Clear
12:55 AM 32.4 °F 26.0 °F 28.4 °F 85% 30.34 in 10.0 mi South 6.9 mph - N/A   Clear
1:15 AM 32.0 °F 26.4 °F 28.4 °F 87% 30.34 in 10.0 mi South 5.8 mph - N/A   Clear
1:35 AM 32.0 °F 25.6 °F 28.4 °F 87% 30.34 in 10.0 mi SSE 6.9 mph - N/A   Clear
1:55 AM 32.0 °F 26.4 °F 28.0 °F 85% 30.34 in 10.0 mi SSE 5.8 mph - N/A   Clear
2:15 AM 31.6 °F 26.0 °F 27.9 °F 86% 30.35 in 10.0 mi South 5.8 mph - N/A   Clear
2:35 AM 30.9 °F 25.2 °F 27.5 °F 87% 30.35 in 10.0 mi South 5.8 mph - N/A   Clear
2:55 AM 30.6 °F 23.8 °F 27.3 °F 88% 30.35 in 10.0 mi South 6.9 mph - N/A   Clear
3:15 AM 30.2 °F 22.6 °F 27.0 °F 88% 30.35 in 10.0 mi SSE 8.1 mph - N/A   Clear
3:35 AM 31.3 °F 23.3 °F 27.5 °F 86% 30.34 in 10.0 mi South 9.2 mph - N/A   Clear
3:55 AM 31.8 °F 26.2 °F 27.3 °F 83% 30.34 in 10.0 mi SSE 5.8 mph - N/A   Clear
4:15 AM 30.6 °F 27.1 °F 26.6 °F 85% 30.35 in 10.0 mi SSE 3.5 mph - N/A   Scattered Clouds
4:35 AM 30.6 °F 27.1 °F 26.4 °F 85% 30.35 in 10.0 mi SSE 3.5 mph - N/A   Scattered Clouds
4:55 AM 30.2 °F 26.7 °F 26.6 °F 86% 30.35 in 10.0 mi SSE 3.5 mph - N/A   Clear
5:15 AM 28.4 °F 23.3 °F 25.5 °F 89% 30.35 in 10.0 mi South 4.6 mph - N/A   Scattered Clouds
5:35 AM 28.4 °F 23.3 °F 25.5 °F 89% 30.35 in 10.0 mi SSE 4.6 mph - N/A   Clear
5:55 AM 28.8 °F 22.6 °F 25.5 °F 88% 30.35 in 10.0 mi SSE 5.8 mph - N/A   Clear
6:15 AM 28.4 °F 22.2 °F 25.5 °F 89% 30.36 in 10.0 mi South 5.8 mph - N/A   Clear
6:35 AM 28.0 °F 22.8 °F 25.2 °F 89% 30.37 in 10.0 mi SSE 4.6 mph - N/A   Clear
6:55 AM 28.9 °F 25.2 °F 25.7 °F 88% 30.38 in 10.0 mi South 3.5 mph - N/A   Clear
7:15 AM 30.2 °F 25.4 °F 26.6 °F 86% 30.38 in 10.0 mi SSE 4.6 mph - N/A   Clear
7:35 AM 30.2 °F 23.4 °F 26.4 °F 86% 30.38 in 10.0 mi South 6.9 mph - N/A   Clear
7:55 AM 30.2 °F 24.3 °F 26.6 °F 86% 30.38 in 10.0 mi South 5.8 mph - N/A   Clear
8:15 AM 30.7 °F 24.9 °F 26.6 °F 85% 30.38 in 10.0 mi South 5.8 mph - N/A   Clear
8:35 AM 31.8 °F 24.6 °F 27.9 °F 85% 30.38 in 10.0 mi South 8.1 mph - N/A   Clear
8:55 AM 32.4 °F 26.9 °F 28.4 °F 85% 30.38 in 10.0 mi SSE 5.8 mph - N/A   Clear
9:15 AM 33.3 °F 28.9 °F 28.9 °F 84% 30.38 in 10.0 mi South 4.6 mph - N/A   Clear
9:35 AM 34.0 °F 28.8 °F 29.3 °F 83% 30.38 in 10.0 mi SSE 5.8 mph - N/A   Scattered Clouds
9:55 AM 34.5 °F 28.6 °F 30.0 °F 84% 30.38 in 10.0 mi SSE 6.9 mph - N/A   Scattered Clouds
10:15 AM 37.6 °F 32.3 °F 31.5 °F 79% 30.38 in 10.0 mi South 6.9 mph - N/A   Scattered Clouds
10:35 AM 39.6 °F 34.7 °F 31.3 °F 72% 30.38 in 10.0 mi SSE 6.9 mph - N/A   Clear
10:55 AM 41.5 °F 35.9 °F 31.6 °F 68% 30.38 in 10.0 mi SSE 9.2 mph - N/A   Clear
11:15 AM 42.4 °F 36.5 °F 30.7 °F 63% 30.37 in 10.0 mi South 10.4 mph - N/A   Mostly Cloudy
11:35 AM 44.6 °F 39.7 °F 30.2 °F 57% 30.37 in 10.0 mi South 9.2 mph - N/A   Overcast
11:55 AM 43.9 °F 38.3 °F 29.3 °F 57% 30.35 in 10.0 mi SSE 10.4 mph - N/A   Overcast
12:15 PM 42.8 °F 37.0 °F 28.2 °F 56% 30.35 in 10.0 mi South 10.4 mph - N/A   Overcast
12:35 PM 42.1 °F 37.1 °F 30.0 °F 62% 30.34 in 10.0 mi SSE 8.1 mph - N/A   Overcast
12:55 PM 43.9 °F 37.9 °F 30.6 °F 59% 30.33 in 10.0 mi South 11.5 mph - N/A   Overcast
1:15 PM 45.1 °F 38.8 °F 29.7 °F 55% 30.33 in 10.0 mi SSE 13.8 mph - N/A   Overcast
1:35 PM 45.5 °F 40.3 °F 30.7 °F 56% 30.33 in 10.0 mi SSE 10.4 mph - N/A   Overcast
1:55 PM 45.9 °F 40.8 °F 29.5 °F 53% 30.32 in 10.0 mi SSE 10.4 mph - N/A   Overcast
2:15 PM 45.5 °F 41.8 °F 30.6 °F 56% 30.32 in 10.0 mi SSE 6.9 mph - N/A   Overcast
2:35 PM 45.5 °F 41.8 °F 30.7 °F 56% 30.32 in 10.0 mi SSE 6.9 mph - N/A   Overcast
2:55 PM 45.0 °F 40.6 °F 29.5 °F 55% 30.31 in 10.0 mi SSE 8.1 mph - N/A   Overcast
3:15 PM 44.6 °F 39.7 °F 29.7 °F 56% 30.32 in 10.0 mi SSE 9.2 mph - N/A   Overcast
3:35 PM 44.1 °F 40.1 °F 29.8 °F 57% 30.33 in 10.0 mi South 6.9 mph - N/A   Overcast
3:55 PM 43.7 °F 39.1 °F 29.8 °F 58% 30.33 in 10.0 mi SSE 8.1 mph - N/A   Overcast
4:15 PM 43.2 °F 37.9 °F 28.6 °F 56% 30.33 in 10.0 mi SSE 9.2 mph - N/A   Overcast
4:35 PM 42.4 °F 37.5 °F 26.6 °F 54% 30.33 in 10.0 mi South 8.1 mph - N/A   Overcast
4:55 PM 42.1 °F 37.1 °F 27.1 °F 55% 30.33 in 10.0 mi South 8.1 mph - N/A   Overcast
5:15 PM 41.7 °F 36.7 °F 28.0 °F 58% 30.33 in 10.0 mi South 8.1 mph - N/A   Overcast
5:35 PM 41.9 °F 37.5 °F 27.5 °F 57% 30.33 in 10.0 mi South 6.9 mph - N/A   Overcast
5:55 PM 41.5 °F 37.8 °F 28.2 °F 59% 30.34 in 10.0 mi South 5.8 mph - N/A   Overcast
6:15 PM 41.0 °F 38.0 °F 29.3 °F 63% 30.34 in 10.0 mi South 4.6 mph - N/A   Overcast
6:35 PM 41.2 °F 37.3 °F 28.8 °F 61% 30.34 in 10.0 mi SSE 5.8 mph - N/A   Overcast
6:55 PM 41.0 °F 37.1 °F 30.2 °F 65% 30.35 in 10.0 mi SSE 5.8 mph - N/A   Overcast
7:15 PM 40.8 °F 36.9 °F 29.7 °F 64% 30.35 in 10.0 mi SSE 5.8 mph - N/A   Overcast
7:35 PM 40.6 °F 37.5 °F 29.8 °F 65% 30.35 in 10.0 mi SSE 4.6 mph - N/A   Overcast
7:55 PM 40.1 °F 36.1 °F 31.1 °F 70% 30.36 in 10.0 mi South 5.8 mph - N/A   Overcast
8:15 PM 39.9 °F 35.8 °F 31.1 °F 71% 30.36 in 10.0 mi South 5.8 mph - N/A   Overcast
8:35 PM 39.7 °F 36.5 °F 31.5 °F 72% 30.36 in 10.0 mi South 4.6 mph - N/A   Overcast
8:55 PM 40.1 °F 36.9 °F 31.1 °F 70% 30.37 in 10.0 mi South 4.6 mph - N/A   Overcast
9:15 PM 40.6 °F 38.6 °F 30.4 °F 67% 30.37 in 10.0 mi South 3.5 mph - N/A   Overcast
9:35 PM 40.5 °F 37.3 °F 31.1 °F 69% 30.37 in 10.0 mi South 4.6 mph - N/A   Overcast
9:55 PM 40.1 °F 36.1 °F 31.5 °F 71% 30.37 in 10.0 mi South 5.8 mph - N/A   Overcast
10:15 PM 40.1 °F 36.9 °F 31.8 °F 72% 30.37 in 10.0 mi South 4.6 mph - N/A   Overcast
10:35 PM 40.3 °F 37.1 °F 31.5 °F 71% 30.37 in 10.0 mi South 4.6 mph - N/A   Overcast
10:55 PM 40.1 °F 36.9 °F 32.0 °F 73% 30.37 in 10.0 mi South 4.6 mph - N/A   Overcast
11:15 PM 40.5 °F 38.4 °F 31.5 °F 70% 30.37 in 10.0 mi South 3.5 mph - N/A   Overcast
11:35 PM 41.0 °F 39.0 °F 32.0 °F 70% 30.37 in 10.0 mi SSW 3.5 mph - N/A   Overcast
11:55 PM 40.8 °F 37.8 °F 31.5 °F 69% 30.37 in 10.0 mi South 4.6 mph - N/A   Overcast